EDT,Max TemperatureF,Mean TemperatureF,Min TemperatureF,Max Dew PointF,MeanDew PointF,Min DewpointF,Max Humidity, Mean Humidity, Min Humidity, Max Sea Level PressureIn, Mean Sea Level PressureIn, Min Sea Level PressureIn, Max VisibilityMiles, Mean VisibilityMiles, Min VisibilityMiles, Max Wind SpeedMPH, Mean Wind SpeedMPH, Max Gust SpeedMPH,PrecipitationIn, CloudCover, Events, WindDirDegrees
2013-7-1,,,,,,,,,,,,,,,,,,,,,,
2013-7-2,86,80,73,72,71,70,89,78,62,30.19,30.15,30.10,10,10,10,12,8,20,0.00,2,,208
2013-7-3,86,78,71,75,71,68,94,82,62,30.26,30.21,30.18,10,10,4,7,1,,0.03,3,,221
2013-7-4,87,80,73,72,71,68,94,75,55,30.26,30.22,30.18,10,10,7,12,2,17,0.00,3,,211
2013-7-5,89,81,73,73,70,68,94,70,49,30.23,30.19,30.12,10,10,10,15,2,20,0.00,2,,224
2013-7-6,91,82,73,73,71,66,94,67,43,30.17,30.12,30.05,10,10,10,9,1,,0.00,0,,242
2013-7-7,91,81,71,73,70,68,94,71,49,30.10,30.04,29.97,10,10,4,16,1,30,0.02,1,,239
2013-7-8,84,76,68,70,68,64,100,81,55,30.08,30.05,30.02,10,10,4,9,0,17,0.05,1,,260
2013-7-9,86,77,68,72,69,66,100,80,55,30.09,30.06,30.01,10,7,1,9,0,9,0.18,2,,221
2013-7-10,86,78,71,73,72,70,100,79,58,30.02,29.92,29.84,10,8,1,12,2,20,0.01,4,,235
2013-7-11,82,76,71,73,68,61,94,76,58,29.93,29.88,29.82,10,10,7,9,0,,0.01,2,,237
2013-7-12,73,70,68,68,64,59,100,81,61,30.05,29.99,29.92,10,8,2,14,2,23,0.61,6,,59
2013-7-13,87,78,68,73,70,66,100,85,55,30.30,30.18,30.05,10,8,2,12,5,16,0.03,5,,104
2013-7-14,89,80,71,72,71,68,100,74,52,30.36,30.30,30.26,10,9,4,10,0,,0.00,3,,265
2013-7-15,91,81,71,73,71,68,89,69,49,30.29,30.23,30.16,10,10,7,8,0,,0.00,0,,286
2013-7-16,91,81,71,73,70,64,100,73,43,30.23,30.19,30.15,10,10,7,8,0,,0.00,0,,360
2013-7-17,91,80,69,73,69,64,100,70,41,30.21,30.16,30.09,10,9,2,0,0,,0.00,0,,-1
2013-7-18,95,84,73,75,72,70,94,69,47,30.10,30.05,29.99,10,10,5,0,0,,0.00,1,,-1
2013-7-19,95,86,77,77,75,73,94,70,49,30.01,29.93,29.83,10,8,4,12,2,20,0.00,1,,233
2013-7-20,89,83,77,72,69,64,78,64,52,29.86,29.82,29.77,10,10,10,14,3,20,0.00,0,,246
2013-7-21,87,79,71,72,69,68,94,75,52,29.95,29.91,29.86,10,10,7,9,0,,0.00,1,,90
2013-7-22,84,76,69,77,71,68,100,87,66,29.95,29.88,29.78,10,7,0,10,1,,0.00,3,,76
2013-7-23,86,78,69,72,70,68,100,84,58,29.77,29.67,29.60,10,9,0,7,1,18,0.00,4,,266
2013-7-24,77,70,64,68,63,52,94,72,54,29.94,29.77,29.65,10,10,5,9,1,,0.01,2,,331
2013-7-25,69,64,59,59,55,52,88,72,60,30.05,30.00,29.93,10,10,10,12,3,16,0.02,5,,43
2013-7-26,80,70,59,63,59,55,100,71,42,30.07,30.04,30.02,10,10,10,9,1,9,0.02,2,,294
2013-7-27,84,72,59,68,62,57,100,73,48,30.06,30.01,29.93,10,8,1,10,2,,0.00,1,,176
2013-7-28,80,72,64,72,66,61,94,82,70,29.98,29.94,29.89,10,9,0,13,4,,0.00,3,,164
2013-7-29,78,69,60,68,60,50,100,72,36,30.14,30.05,29.96,10,8,0,10,3,,0.00,2,,292
2013-7-30,78,68,57,63,57,55,100,73,44,30.21,30.16,30.13,10,10,7,9,2,18,0.00,1,,287
2013-7-31,80,68,55,66,60,55,100,72,44,30.17,30.12,30.04,10,8,1,7,1,,0.01,1,,187